Vertical_Velocity
2 -1 -1 -0 0 0 0 0 0 1 1 0 1 1 0 0 0 2 -1 0 -1 -2 -1 -1 -2 -2 -1 -1 0 0 -0 -0 -0 0 0 1 0 0 -2 -1 -3 -1 1
-0 -0 1 0 -1 -1 -0 0 -1 0 -0 0 0 1 1 0 1 -0 -0 -1 -1 1 1 1 -0 -1 -1 1 -1 -2 -2 -2 -1 -2 0 3 -4 -2 -1 -4 -2 -2 -2
-2 -0 -0 -0 -0 -1 -1 0 -0 1 -1 -1 -0 -1 -2 -0 0 -0 -2 -1 -1 -1 -1 -0 1 -0 -0 -1 -1 -1 -1 -1 -1 2 -2 0 2 4 -1 -2 -1 0 -3
-1 0 0 1 1 -0 -1 -1 1 0 0 0 -0 -2 -0 -1 2 0 -2 1 -1 -0 -0 -2 -0 -1 -1 -1 -0 0 -1 -1 -0 -3 -0 -3 -6 -7 9 -5 1 1 2
0 1 2 1 0 0 2 -1 -1 -1 -1 0 -1 -0 -0 1 0 -2 1 0 0 0 -1 -1 0 0 -0 -0 -1 -1 -1 -3 -4 -3 -3 -6 -6 -6 -5 14 1 -4 -6
3 2 1 1 -0 -0 0 -0 -0 -0 -0 1 -0 -1 0 -0 2 1 -0 1 -1 -1 -3 -1 -1 -1 -0 0 -0 -1 -2 -2 -2 -2 -3 -1 -1 -2 -9 -13 5 -0 14
0 1 0 0 -1 -1 -2 -0 -1 -2 -1 -2 -3 -1 -1 -3 -1 -1 -0 -0 -1 -1 0 -0 -2 -2 -1 -0 -1 -2 -3 -2 -2 -2 -1 -2 -4 -5 -5 -11 -5 -11 8
2 1 0 1 -0 -2 -1 -0 -0 0 2 0 0 -0 -0 -0 0 -1 -1 0 0 1 -0 0 -0 -0 -0 1 0 0 -1 -1 0 -1 -1 0 -2 -3 -6 -9 -17 -3 -4
3 -2 -0 -1 -1 -0 -0 -0 -1 -1 -1 -2 -3 -2 -1 -2 -0 -0 1 0 -0 -0 0 0 1 1 1 1 2 2 1 -0 -1 -1 0 -2 -3 -1 -4 -4 -6 -19 -15
1 1 0 1 0 -1 -0 -0 -1 -1 -0 0 -0 -1 -2 -1 -0 0 -1 -2 -1 -1 -1 -0 -1 -1 -1 -1 -1 -1 0 -1 -3 -3 -2 -4 -3 0 -1 -3 -4 -5 -18
-1 -2 -2 -1 -1 -3 -1 -1 -0 1 0 -1 0 -1 1 -1 -2 -3 -2 -1 -1 -1 -2 -1 -1 -1 -1 -1 0 0 -1 -2 -2 -5 0 -1 -0 1 0 -0 -1 -3 -9
0 2 2 3 -1 -1 1 1 2 -1 -1 -0 0 -1 -1 -2 -1 -0 -0 -0 -1 -2 -1 -1 0 1 -0 1 1 -1 -1 -0 0 1 -1 -3 -2 -3 -4 -2 3 2 -0
-1 2 4 -1 0 2 1 1 1 2 1 0 -0 0 -0 -1 -2 -2 -3 -3 -1 1 -0 -1 -1 -2 -1 1 1 0 0 -1 0 2 4 3 -0 2 1 -1 0 0 -2
6 2 -3 2 1 1 0 -2 -1 -0 0 -1 -1 -1 -1 -1 -1 -3 -2 -1 -0 -0 0 0 -1 -2 -2 1 1 -0 -1 0 1 -1 -1 -0 0 -1 -0 1 2 1 3
4 2 0 1 0 -2 -1 1 1 1 1 1 0 0 -1 -2 -3 -1 1 -0 -1 0 1 -1 -1 -1 -2 -1 0 1 0 1 2 -1 -0 -1 -2 -1 -4 -6 3 -4 -4
-1 1 5 -2 -3 -1 1 2 -1 -0 0 -1 -2 -2 -1 -1 -1 -0 2 3 2 1 1 1 -1 -2 -2 -1 -2 3 3 0 -2 4 4 -0 -1 -2 -5 0 -2 -14 -19
-2 -7 1 0 3 1 -2 -1 1 -0 -1 -2 -1 -0 -1 -1 -0 2 1 1 2 0 0 1 0 -2 -3 -2 -1 -1 -0 3 -1 -0 -0 4 -1 -0 -1 -1 2 1 2
1 1 1 -2 1 -2 0 -2 -2 -1 0 1 -1 -2 -0 -2 1 3 3 1 0 1 1 1 0 1 -3 -1 -3 -3 -3 0 -2 -1 4 -1 -1 -0 -4 -5 5 6 2
-2 -1 -5 1 -3 -2 0 -6 -4 -2 -3 -2 -0 1 -3 2 -0 1 -1 0 -0 1 2 1 -2 2 -2 -3 -3 -3 0 1 1 2 -1 -3 -1 -1 -5 -18 -18 -2 5
-8 -3 -1 -6 -2 -4 -1 -3 -4 -3 -2 0 -1 3 1 0 2 -3 -2 -1 2 1 -0 -2 -2 -2 3 -0 -3 -9 -3 -1 1 2 -4 2 -5 -4 -0 -6 -5 -6 -2
-1 2 -6 1 0 -1 3 -1 0 2 -0 -0 0 -1 -0 -2 -2 -1 -1 -1 -1 -0 -1 3 -1 -1 -2 0 -2 -4 -5 -8 -6 -3 -3 2 1 -0 0 4 -4 -1 3
0 -7 3 -1 -1 2 2 -0 -0 0 2 2 0 -0 1 1 1 -0 0 1 1 1 1 2 3 -1 -1 -4 -4 -1 -2 -6 -16 -8 -3 1 0 -6 1 -3 -2 1 0
2 1 -1 2 2 3 2 2 1 1 0 2 2 2 1 2 4 -1 -0 -1 -3 -0 3 0 2 4 2 -1 -2 -3 -4 -7 -9 -11 -10 -8 -3 -5 -7 -4 -2 -3 1
3 2 2 2 2 1 -0 2 1 3 2 -1 1 1 3 5 5 3 2 1 -2 -2 -1 1 1 5 3 -1 -1 4 -2 3 2 -1 -0 -5 -5 -5 -10 -7 -2 -2 -1
-0 -0 1 -1 0 3 2 3 2 5 2 5 6 6 0 -1 -3 -2 2 4 3 3 4 -2 -1 -5 0 -2 -3 0 -3 -2 0 -9 -2 -0 -2 -2 1 -0 1 -0 0
2 3 6 6 1 2 1 2 3 3 2 -1 -1 -3 -1 3 1 3 1 -4 2 0 -0 -3 -7 -1 -9 -9 -2 -6 -5 -6 -5 -0 -9 -3 -10 -6 -1 -0 1 3 -4
Height
5818 5819 5821 5823 5825 5827 5829 5831 5833 5835 5836 5837 5839 5841 5843 5844 5844 5845 5844 5845 5845 5844 5845 5844 5843 5842 5841 5840 5840 5838 5837 5836 5834 5833 5832 5830 5828 5825 5822 5819 5816 5813 5811
5811 5814 5817 5819 5821 5823 5825 5828 5829 5831 5832 5834 5835 5837 5838 5839 5840 5840 5840 5840 5840 5840 5839 5839 5838 5836 5835 5834 5833 5832 5830 5828 5827 5825 5825 5822 5819 5817 5813 5809 5807 5803 5800
5806 5809 5812 5814 5817 5819 5820 5823 5825 5826 5828 5830 5831 5833 5834 5835 5836 5836 5835 5835 5834 5834 5833 5832 5831 5830 5829 5828 5826 5824 5823 5820 5818 5817 5814 5812 5811 5809 5806 5802 5798 5794 5789
5801 5804 5807 5810 5812 5814 5816 5818 5820 5822 5824 5825 5826 5827 5828 5830 5830 5829 5829 5829 5828 5827 5826 5825 5824 5822 5821 5820 5818 5816 5814 5813 5809 5807 5805 5800 5797 5796 5797 5793 5788 5784 5781
5796 5800 5804 5806 5808 5810 5812 5814 5816 5818 5819 5820 5821 5822 5823 5824 5823 5823 5823 5822 5822 5820 5819 5818 5816 5815 5813 5811 5809 5807 5805 5803 5800 5797 5793 5789 5786 5781 5776 5778 5779 5771 5767
5791 5796 5798 5801 5804 5805 5807 5809 5811 5812 5814 5815 5816 5817 5817 5817 5817 5816 5816 5816 5814 5812 5811 5809 5808 5806 5804 5801 5799 5797 5794 5791 5788 5785 5781 5778 5774 5770 5764 5759 5759 5758 5758
5787 5790 5794 5796 5799 5801 5803 5804 5806 5807 5808 5809 5809 5811 5810 5809 5809 5809 5808 5807 5806 5804 5802 5800 5798 5796 5794 5791 5789 5786 5783 5780 5777 5773 5770 5765 5761 5756 5751 5747 5744 5740 5739
5781 5785 5788 5791 5793 5795 5797 5798 5799 5800 5801 5801 5802 5802 5802 5801 5801 5800 5799 5798 5797 5795 5792 5790 5788 5786 5784 5781 5778 5775 5772 5769 5765 5761 5756 5752 5747 5742 5737 5732 5727 5726 5724
5776 5779 5781 5784 5787 5789 5790 5791 5792 5793 5794 5794 5794 5794 5794 5793 5792 5791 5790 5789 5787 5785 5783 5781 5778 5775 5772 5769 5766 5763 5760 5756 5752 5748 5744 5739 5734 5729 5722 5716 5709 5704 5704
5769 5772 5774 5777 5779 5781 5783 5784 5785 5785 5786 5786 5785 5785 5785 5784 5783 5782 5780 5779 5777 5775 5772 5770 5767 5764 5761 5758 5755 5751 5748 5745 5740 5735 5731 5725 5719 5713 5706 5700 5694 5688 5684
5761 5764 5767 5768 5771 5774 5775 5776 5777 5777 5778 5777 5777 5776 5776 5774 5773 5772 5770 5768 5766 5763 5761 5758 5755 5753 5750 5747 5744 5740 5736 5732 5727 5721 5716 5709 5703 5698 5692 5685 5679 5673 5667
5753 5756 5758 5760 5763 5765 5766 5767 5768 5769 5769 5768 5768 5767 5765 5764 5763 5761 5759 5757 5754 5752 5749 5746 5743 5740 5737 5734 5731 5726 5722 5718 5713 5706 5700 5693 5688 5682 5676 5670 5664 5658 5652
5746 5747 5748 5751 5754 5756 5757 5758 5758 5758 5758 5758 5757 5757 5756 5754 5752 5750 5748 5745 5742 5739 5736 5734 5731 5728 5725 5721 5717 5712 5708 5702 5696 5690 5685 5679 5673 5668 5662 5656 5651 5644 5636
5735 5736 5739 5742 5743 5745 5746 5747 5748 5748 5747 5747 5747 5745 5744 5742 5740 5739 5736 5732 5729 5726 5724 5721 5718 5715 5711 5707 5702 5698 5693 5687 5681 5675 5669 5663 5657 5652 5647 5640 5633 5625 5618
5724 5726 5729 5731 5733 5734 5736 5736 5736 5736 5736 5735 5734 5733 5732 5729 5727 5725 5722 5720 5717 5714 5711 5708 5705 5701 5696 5692 5688 5683 5677 5672 5666 5660 5654 5648 5642 5635 5628 5621 5612 5603 5595
5713 5715 5717 5719 5722 5724 5724 5724 5724 5724 5724 5723 5722 5720 5718 5716 5714 5711 5708 5706 5704 5701 5697 5693 5689 5684 5679 5675 5670 5665 5660 5655 5650 5645 5638 5632 5626 5619 5611 5603 5592 5579 5571
5699 5703 5708 5709 5711 5712 5711 5712 5712 5711 5711 5710 5708 5707 5705 5703 5700 5698 5695 5693 5690 5687 5683 5679 5674 5668 5663 5658 5654 5650 5646 5641 5636 5630 5625 5618 5608 5599 5591 5585 5576 5564 5553
5690 5694 5696 5698 5699 5699 5698 5698 5699 5699 5698 5696 5695 5693 5691 5689 5686 5684 5681 5678 5675 5672 5668 5663 5658 5652 5646 5642 5638 5634 5629 5624 5619 5614 5607 5599 5591 5580 5572 5566 5561 5551 5539
5678 5681 5683 5685 5684 5684 5684 5685 5685 5684 5683 5681 5680 5678 5675 5673 5671 5669 5667 5663 5660 5656 5652 5647 5642 5637 5631 5626 5621 5618 5614 5608 5603 5597 5589 5580 5571 5561 5552 5545 5541 5535 5525
5663 5667 5669 5668 5668 5669 5669 5668 5668 5667 5666 5665 5663 5661 5660 5658 5656 5654 5650 5646 5643 5639 5635 5629 5625 5619 5615 5608 5604 5600 5598 5594 5588 5580 5571 5563 5553 5545 5535 5523 5516 5513 5509
5650 5651 5651 5653 5653 5653 5652 5651 5651 5651 5650 5648 5647 5647 5644 5642 5639 5636 5633 5630 5626 5622 5618 5614 5609 5603 5599 5594 5588 5583 5578 5572 5568 5561 5556 5547 5534 5525 5515 5505 5496 5491 5487
5631 5632 5635 5635 5635 5635 5635 5635 5635 5635 5634 5634 5632 5630 5628 5625 5622 5619 5616 5613 5609 5606 5602 5598 5593 5587 5582 5576 5571 5564 5557 5550 5547 5541 5535 5527 5514 5503 5494 5486 5476 5468 5462
5614 5615 5616 5618 5619 5619 5619 5619 5620 5619 5618 5617 5615 5613 5610 5608 5605 5602 5599 5595 5592 5589 5586 5581 5577 5571 5565 5559 5553 5547 5539 5531 5525 5517 5511 5502 5492 5482 5473 5462 5451 5441 5435
5598 5599 5600 5602 5603 5603 5603 5604 5604 5603 5602 5600 5598 5596 5594 5592 5590 5588 5584 5579 5575 5572 5568 5564 5560 5555 5548 5541 5535 5527 5518 5510 5503 5495 5489 5480 5471 5461 5447 5439 5432 5426 5421
5582 5584 5586 5587 5588 5588 5588 5588 5587 5587 5586 5585 5583 5582 5581 5578 5575 5570 5567 5563 5558 5554 5551 5545 5541 5536 5531 5524 5516 5507 5501 5493 5483 5475 5469 5461 5450 5440 5429 5422 5416 5414 5414
5568 5570 5571 5572 5573 5573 5573 5573 5573 5573 5573 5572 5570 5567 5564 5561 5557 5554 5551 5546 5542 5537 5531 5527 5523 5518 5512 5505 5495 5487 5480 5471 5462 5457 5447 5439 5429 5420 5413 5409 5406 5407 5408